This demonstration page uses our WeatherBlox Daily Observations layout. Learn more.

Left ArrowRight Arrow

41.12389, -100.76542

Hourly Observations for September 7, 2020

Temp ( °F °C ) Dew Point ( °F °C ) Humidity (%) Winds ( mph kmh ) Pressure ( in mb ) Visibility ( mi km ) Precip ( " mm )
12:53 am 00:53 Clear 61 16.1 48 8.9 63 63 ESE 3 6 29.92 1013 10 16 0.00 0.00
1:53 am 01:53 Clear 63 17.2 50 10 63 63 ENE 8 13 29.91 1013 10 16 0.00 0.00
2:53 am 02:53 Clear 60 15.6 50 10 70 70 ENE 6 9 29.90 1013 10 16 0.00 0.00
3:53 am 03:53 Clear 57 13.9 50 10 78 78 E 8 13 29.89 1012 10 16 0.00 0.00
4:53 am 04:53 Clear 55 12.8 49 9.4 80 80 E 3 6 29.90 1013 10 16 0.00 0.00
5:53 am 05:53 Clear 53 11.7 47 8.3 80 80 Calm 29.89 1012 10 16 0.00 0.00
6:53 am 06:53 Clear 50 10 46 7.8 86 86 NE 3 6 29.90 1012 10 16 0.00 0.00
7:53 am 07:53 Sunny 51 10.6 46 7.8 83 83 NE 6 9 29.89 1012 10 16 0.00 0.00
8:53 am 08:53 Sunny 58 14.4 48 8.9 70 70 ENE 14 22 29.87 1011 10 16 0.00 0.00
9:53 am 09:53 Sunny 63 17.2 48 8.9 58 58 ESE 10 17 29.87 1012 10 16 0.00 0.00
10:53 am 10:53 Sunny 65 18.3 48 8.9 54 54 SE 13 20 29.87 1011 10 16 0.00 0.00
11:53 am 11:53 Sunny 67 19.4 47 8.3 49 49 ESE 12 19 29.85 1011 10 16 0.00 0.00
12:53 pm 12:53 Sunny 71 21.7 46 7.8 41 41 ESE 14 22 29.81 1010 10 16 0.00 0.00
1:53 pm 13:53 Sunny 74 23.3 46 7.8 37 37 ESE 13 20 29.77 1008 10 16 0.00 0.00
2:53 pm 14:53 Sunny 75 23.9 47 8.3 37 37 SE 14 22 29.74 1007 10 16 0.00 0.00
3:53 pm 15:53 Mostly Sunny 77 25 47 8.3 35 35 E 15 24 29.75 1007 10 16 0.00 0.00
4:53 pm 16:53 Partly Cloudy 75 23.9 47 8.3 37 37 ENE 16 26 29.78 1008 10 16 0.00 0.00
5:53 pm 17:53 Partly Cloudy 73 22.8 45 7.2 37 37 ENE 18 30 29.81 1009 10 16 0.00 0.00
6:53 pm 18:53 Cloudy 67 19.4 42 5.6 41 41 ENE 22 35 29.85 1011 10 16 0.00 0.00
7:53 pm 19:53 Mostly Sunny 61 16.1 41 5 48 48 NE 25 41 29.90 1013 10 16 0.00 0.00
8:53 pm 20:53 Clear 54 12.2 42 5.6 64 64 NE 25 41 29.97 1015 10 16 0.00 0.00
9:53 pm 21:53 Clear 51 10.6 40 4.4 66 66 NNE 17 28 30.00 1016 10 16 0.00 0.00
10:53 pm 22:53 Partly Cloudy 51 10.6 40 4.4 66 66 NE 22 35 30.00 1016 10 16 0.00 0.00
11:53 pm 23:53 Clear 48 8.9 39 3.9 71 71 NNE 25 41 29.97 1015 10 16 0.00 0.00

Powered by AerisWeather